Content
SEND FEEDBACK

Daily
Averages
Monthly
Summary
United States of America

MANGILAO, GUAM


Home > North America > United States > Guam
Elevation: 60 feet     Latitude: 13 27N     Longitude: 144 49E

WEATHER
 
SELECT A DAY
Number of Records: 341,524;   Date Range: 1/1/95 - 7/7/14
 
SHARE

PRINT THIS DATA

[ ← Previous Day ]
WEATHER ALMANAC - JANUARY 12, 2014
[ Next Day → ]
[ °C ]   °F
Weather ElementAverageHighLow
Temperature79.6 °F84.2 °F (11:43 am)76.5 °F (3:58 am)
Dewpoint75.4 °F77.5 °F (9:58 pm)71.6 °F (3:18 am)
Humidity87.5 %100 % (9:42 pm)74 % (12:58 pm)
Barometer29.87 in29.93 in (8:58 am)29.81 in (1:58 pm)
Wind Speed13 mph20.7 mph (11:43 am)
Wind Gust25.3 mph (12:58 pm)
Weather ElementAverage
Visibility9.9 mi
Wind DirectionENE (64.9 °)

Weather ElementTotal
Precipitation---
Cooling Degree Days15.4 (Base 65)
Growing Degree Days30.4 (Base 50)
Averaged from 63 records on January 12, 2014
WEATHER CONDITIONS BREAKOUT
WIND DIRECTION BREAKOUT
WEATHER BY HOUR - JANUARY 12, 2014
[ °C ]   °F
Local TimeTemperatureDewpointHumidityBarometerVisibilityWind DirectionWind SpeedGust SpeedPrecipitationEventsConditions
12:58 AM76.6 °F72.0 °F85 %29.88 in10.0 miENE (70°)16.1 mph20.7 mphPartly Cloudy
1:58 AM76.8 °F72.5 °F86 %29.86 in10.0 miENE (60°)13.8 mphScattered Clouds
2:53 AM77.0 °F73.4 °F89 %29.89 in10.0 miENE (60°)12.7 mphMostly Cloudy
2:58 AM77.4 °F72.5 °F85 %29.86 in10.0 miENE (60°)11.5 mphMostly Cloudy
3:18 AM77.0 °F71.6 °F83 %29.89 in10.0 miENE (60°)13.8 mphScattered Clouds
3:58 AM76.5 °F72.3 °F87 %29.86 in10.0 miENE (60°)9.2 mphClear
4:58 AM76.6 °F72.3 °F86 %29.86 in10.0 miENE (60°)10.4 mphPartly Cloudy
5:58 AM76.6 °F73.0 °F89 %29.86 in10.0 miENE (60°)9.2 mphPartly Cloudy
6:23 AM77.0 °F73.4 °F89 %29.89 in10.0 miNE (50°)12.7 mphMostly Cloudy
6:28 AM77.0 °F73.4 °F89 %29.90 in10.0 miENE (60°)12.7 mphMostly Cloudy
6:33 AM77.0 °F73.4 °F89 %29.90 in10.0 miNE (50°)12.7 mphScattered Clouds
6:58 AM77.4 °F73.9 °F89 %29.87 in10.0 miENE (60°)10.4 mphScattered Clouds
7:58 AM78.4 °F73.8 °F85 %29.92 in10.0 miENE (60°)12.7 mphClear
8:58 AM81.1 °F75.2 °F82 %29.93 in10.0 miENE (60°)12.7 mphPartly Cloudy
9:58 AM81.9 °F74.7 °F79 %29.91 in10.0 miENE (60°)16.1 mphScattered Clouds
10:58 AM83.8 °F75.4 °F76 %29.88 in10.0 miNE (50°)17.3 mph23.0 mphScattered Clouds
11:08 AM82.4 °F75.2 °F79 %29.91 in10.0 miNE (40°)16.1 mphMostly Cloudy
11:13 AM82.4 °F75.2 °F79 %29.91 in10.0 miNE (50°)15.0 mphMostly Cloudy
11:33 AM82.4 °F75.2 °F79 %29.90 in10.0 miNE (40°)19.6 mphMostly Cloudy
11:38 AM82.4 °F75.2 °F79 %29.90 in10.0 miNE (50°)13.8 mphScattered Clouds
11:43 AM84.2 °F77.0 °F79 %29.90 in10.0 miNE (40°)20.7 mphMostly Cloudy
11:48 AM82.4 °F75.2 °F79 %29.90 in10.0 miNE (40°)18.4 mphMostly Cloudy
11:53 AM82.4 °F75.2 °F79 %29.90 in10.0 miNE (40°)17.3 mphScattered Clouds
11:58 AM81.7 °F75.4 °F81 %29.87 in10.0 miNE (40°)20.7 mphScattered Clouds
12:58 PM83.3 °F74.3 °F74 %29.84 in10.0 miNE (50°)20.7 mph25.3 mphScattered Clouds
1:58 PM83.5 °F74.8 °F75 %29.81 in10.0 miNE (40°)19.6 mphScattered Clouds
2:58 PM83.5 °F75.0 °F76 %29.81 in10.0 miNE (40°)19.6 mphScattered Clouds
3:03 PM82.4 °F75.2 °F79 %29.83 in10.0 miNNE (30°)16.1 mphMostly Cloudy
3:18 PM82.4 °F75.2 °F79 %29.83 in10.0 miNE (40°)19.6 mph24.2 mphScattered Clouds
3:23 PM82.4 °F75.2 °F79 %29.83 in10.0 miNE (40°)18.4 mph24.2 mphMostly Cloudy
3:33 PM82.4 °F75.2 °F79 %29.83 in10.0 miNNE (30°)17.3 mphScattered Clouds
3:58 PM82.2 °F75.0 °F79 %29.81 in10.0 miNE (40°)13.8 mphPartly Cloudy
4:58 PM81.5 °F76.5 °F85 %29.81 in10.0 miNE (40°)15.0 mphScattered Clouds
5:03 PM80.6 °F77.0 °F89 %29.84 in10.0 miNE (40°)13.8 mphScattered Clouds
5:08 PM80.6 °F77.0 °F89 %29.84 in10.0 miNE (50°)12.7 mphMostly Cloudy
5:13 PM80.6 °F77.0 °F89 %29.84 in10.0 miNE (40°)13.8 mphMostly Cloudy
5:43 PM78.8 °F77.0 °F94 %29.84 in10.0 miNE (50°)10.4 mphMostly Cloudy
5:53 PM78.8 °F75.2 °F89 %29.85 in10.0 miNE (50°)10.4 mphMostly Cloudy
5:58 PM78.8 °F75.9 °F91 %29.81 in10.0 miENE (60°)9.2 mphScattered Clouds
6:48 PM78.8 °F77.0 °F94 %29.85 in10.0 miENE (60°)11.5 mphMostly Cloudy
6:58 PM78.4 °F76.8 °F95 %29.82 in10.0 miENE (60°)10.4 mphScattered Clouds
7:03 PM78.8 °F77.0 °F94 %29.85 in10.0 miENE (60°)8.1 mphMostly Cloudy
7:18 PM78.8 °F75.2 °F89 %29.85 in10.0 miENE (70°)10.4 mphScattered Clouds
7:43 PM78.8 °F77.0 °F94 %29.86 in10.0 miENE (70°)12.7 mphMostly Cloudy
7:53 PM78.8 °F77.0 °F94 %29.87 in10.0 miEast (90°)5.8 mphMostly Cloudy
7:58 PM78.8 °F77.0 °F94 %29.84 in10.0 miEast (80°)8.1 mphMostly Cloudy
8:43 PM78.8 °F77.0 °F94 %29.88 in10.0 miEast (90°)11.5 mph19.6 mphMostly Cloudy
8:53 PM78.8 °F77.0 °F94 %29.88 in10.0 miEast (90°)10.4 mph19.6 mphMostly Cloudy
8:58 PM78.8 °F77.0 °F94 %29.86 in10.0 miEast (100°)10.4 mph17.3 mphMostly Cloudy
9:13 PM78.8 °F77.0 °F94 %29.88 in9.0 miESE (110°)10.4 mph23.0 mphMostly Cloudy
9:18 PM78.8 °F77.0 °F94 %29.88 in10.0 miESE (110°)8.1 mph23.0 mphMostly Cloudy
9:28 PM78.8 °F77.0 °F94 %29.88 in10.0 miESE (110°)10.4 mph17.3 mphMostly Cloudy
9:32 PM78.8 °F77.0 °F94 %29.88 in9.0 miEast (90°)17.3 mph23.0 mphRainLight Rain
9:37 PM77.0 °F75.2 °F94 %29.88 in8.0 miEast (80°)12.7 mph23.0 mphRainLight Rain
9:42 PM77.0 °F77.0 °F100 %29.88 in9.0 miEast (90°)10.4 mphLight Drizzle
9:45 PM77.0 °F77.0 °F100 %29.88 in10.0 miEast (90°)10.4 mphMostly Cloudy
9:50 PM77.0 °F77.0 °F100 %29.88 in10.0 miEast (100°)11.5 mphMostly Cloudy
9:58 PM78.1 °F77.5 °F98 %29.86 in10.0 miEast (100°)11.5 mph0.00 inMostly Cloudy
10:00 PM78.8 °F77.0 °F94 %29.88 in10.0 miEast (100°)8.1 mphLight Drizzle
10:09 PM78.8 °F77.0 °F94 %29.88 in10.0 miESE (110°)8.1 mphMostly Cloudy
10:58 PM78.6 °F76.3 °F92 %29.86 in10.0 miEast (100°)10.4 mph0.00 inPartly Cloudy
11:43 PM78.8 °F75.2 °F89 %29.88 in10.0 miEast (100°)5.8 mphMostly Cloudy
11:58 PM78.8 °F75.2 °F89 %29.84 in10.0 miESE (110°)8.1 mphScattered Clouds
Hourly data recorded from PGUA, located miles away from Mangilao, Guam







STORIES FROM OUR PARTNERS